| time (UTC) | temp F | wind direction | speed MPH | gust MPH | rain 1hr in | rain 24hr in | rain mn in | humidity % | barometer mb |
| 20260506164720 | 73 | 331 | 0.0 | 0.0 | 0.00 | 0.00 | 0.00 | 28 | 1017.7 |
| 20260506164231 | 73 | 65 | 0.0 | 0.0 | 0.00 | 0.00 | 0.00 | 29 | 1017.8 |
| 20260506163719 | 73 | 65 | 0.0 | 0.0 | 0.00 | 0.00 | 0.00 | 27 | 1017.8 |
| 20260506163227 | 73 | 87 | 0.0 | 0.0 | 0.00 | 0.00 | 0.00 | 28 | 1017.9 |
| 20260506162735 | 72 | 87 | 0.0 | 0.0 | 0.00 | 0.00 | 0.00 | 29 | 1017.8 |
| 20260506162220 | 72 | 88 | 0.0 | 0.0 | 0.00 | 0.00 | 0.00 | 29 | 1017.8 |
| 20260506161747 | 71 | 24 | 0.0 | 0.0 | 0.00 | 0.00 | 0.00 | 29 | 1017.7 |
| 20260506160729 | 71 | 63 | 0.0 | 0.0 | 0.00 | 0.00 | 0.00 | 29 | 1017.8 |
| 20260506160217 | 71 | 64 | 0.0 | 0.0 | 0.00 | 0.00 | 0.00 | 31 | 1017.7 |
| 20260506155727 | 71 | 74 | 0.0 | 0.0 | 0.00 | 0.00 | 0.00 | 29 | 1017.7 |
| 20260506155218 | 71 | 77 | 0.0 | 0.0 | 0.00 | 0.00 | 0.00 | 30 | 1017.7 |
| 20260506154727 | 70 | 77 | 0.0 | 0.0 | 0.00 | 0.00 | 0.00 | 30 | 1017.7 |
| 20260506154216 | 70 | 78 | 0.0 | 0.0 | 0.00 | 0.00 | 0.00 | 31 | 1017.7 |
| 20260506153724 | 69 | 78 | 0.0 | 0.0 | 0.00 | 0.00 | 0.00 | 32 | 1017.6 |
| 20260506153231 | 69 | 78 | 0.0 | 0.0 | 0.00 | 0.00 | 0.00 | 32 | 1017.6 |
| 20260506152741 | 69 | 78 | 0.0 | 0.0 | 0.00 | 0.00 | 0.00 | 32 | 1017.5 |
| 20260506151723 | 68 | 78 | 0.0 | 0.0 | 0.00 | 0.00 | 0.00 | 32 | 1017.6 |
| 20260506151213 | 67 | 78 | 0.0 | 0.0 | 0.00 | 0.00 | 0.00 | 33 | 1017.5 |
| 20260506150721 | 67 | 78 | 0.0 | 0.0 | 0.00 | 0.00 | 0.00 | 35 | 1017.6 |
| 20260506150229 | 66 | 78 | 0.0 | 0.0 | 0.00 | 0.00 | 0.00 | 34 | 1017.6 |
| 20260506145722 | 66 | 78 | 0.0 | 0.0 | 0.00 | 0.00 | 0.00 | 37 | 1017.5 |
| 20260506145230 | 65 | 78 | 0.0 | 0.0 | 0.00 | 0.00 | 0.00 | 36 | 1017.5 |
| 20260506144215 | 64 | 186 | 0.0 | 0.0 | 0.00 | 0.00 | 0.00 | 38 | 1017.4 |
| 20260506143744 | 62 | 186 | 0.0 | 2.0 | 0.00 | 0.00 | 0.00 | 40 | 1017.4 |
| 20260506143231 | 61 | 188 | 0.0 | 0.0 | 0.00 | 0.00 | 0.00 | 41 | 1017.3 |
| 20260506142721 | 59 | 188 | 0.0 | 0.0 | 0.00 | 0.00 | 0.00 | 46 | 1017.3 |
| 20260506142229 | 58 | 188 | 0.0 | 0.0 | 0.00 | 0.00 | 0.00 | 47 | 1017.2 |
| 20260506141718 | 57 | 188 | 0.0 | 0.0 | 0.00 | 0.00 | 0.00 | 50 | 1017.1 |
| 20260506141248 | 56 | 188 | 0.0 | 0.0 | 0.00 | 0.00 | 0.00 | 56 | 1017.2 |
| 20260506140713 | 54 | 188 | 0.0 | 0.0 | 0.00 | 0.00 | 0.00 | 60 | 1017.1 |
| 20260506140241 | 53 | 188 | 0.0 | 0.0 | 0.00 | 0.00 | 0.00 | 63 | 1017.1 |
| 20260506135224 | 51 | 188 | 0.0 | 0.0 | 0.00 | 0.00 | 0.00 | 66 | 1016.9 |
| 20260506134753 | 49 | 188 | 0.0 | 0.0 | 0.00 | 0.00 | 0.00 | 66 | 1016.7 |
| 20260506134220 | 48 | 188 | 0.0 | 0.0 | 0.00 | 0.00 | 0.00 | 66 | 1016.6 |
| 20260506133731 | 48 | 188 | 0.0 | 0.0 | 0.00 | 0.00 | 0.00 | 66 | 1016.5 |
| 20260506133240 | 47 | 188 | 0.0 | 0.0 | 0.00 | 0.00 | 0.00 | 65 | 1016.4 |
| 20260506132727 | 46 | 188 | 0.0 | 0.0 | 0.00 | 0.00 | 0.00 | 64 | 1016.3 |
| 20260506132216 | 46 | 188 | 0.0 | 0.0 | 0.00 | 0.00 | 0.00 | 64 | 1016.3 |
| 20260506131724 | 46 | 188 | 0.0 | 0.0 | 0.00 | 0.00 | 0.00 | 63 | 1016.3 |
| 20260506131214 | 46 | 188 | 0.0 | 0.0 | 0.00 | 0.00 | 0.00 | 62 | 1016.1 |
| 20260506130721 | 46 | 188 | 0.0 | 0.0 | 0.00 | 0.00 | 0.00 | 62 | 1016.1 |
| 20260506130228 | 46 | 188 | 0.0 | 0.0 | 0.00 | 0.00 | 0.00 | 62 | 1016.0 |
| 20260506125718 | 46 | 188 | 0.0 | 0.0 | 0.00 | 0.00 | 0.00 | 63 | 1015.9 |
| 20260506125225 | 46 | 188 | 0.0 | 0.0 | 0.00 | 0.00 | 0.00 | 63 | 1015.8 |
| 20260506124753 | 45 | 188 | 0.0 | 0.0 | 0.00 | 0.00 | 0.00 | 63 | 1015.7 |
| 20260506124219 | 45 | 188 | 0.0 | 0.0 | 0.00 | 0.00 | 0.00 | 62 | 1015.6 |
| 20260506123732 | 45 | 188 | 0.0 | 0.0 | 0.00 | 0.00 | 0.00 | 61 | 1015.5 |
| 20260506123219 | 45 | 188 | 0.0 | 0.0 | 0.00 | 0.00 | 0.00 | 61 | 1015.4 |
| 20260506122750 | 45 | 188 | 0.0 | 0.0 | 0.00 | 0.00 | 0.00 | 60 | 1015.4 |
| 20260506122237 | 46 | 188 | 0.0 | 0.0 | 0.00 | 0.00 | 0.00 | 60 | 1015.3 |
| 20260506121726 | 46 | 188 | 0.0 | 0.0 | 0.00 | 0.00 | 0.00 | 60 | 1015.3 |
| 20260506121216 | 46 | 188 | 0.0 | 0.0 | 0.00 | 0.00 | 0.00 | 60 | 1015.1 |
| 20260506120724 | 46 | 188 | 0.0 | 0.0 | 0.00 | 0.00 | 0.00 | 59 | 1015.1 |
| 20260506120212 | 46 | 188 | 0.0 | 0.0 | 0.00 | 0.00 | 0.00 | 59 | 1015.1 |
| 20260506115742 | 47 | 188 | 0.0 | 0.0 | 0.00 | 0.00 | 0.00 | 59 | 1015.0 |
| 20260506115228 | 47 | 188 | 0.0 | 0.0 | 0.00 | 0.00 | 0.00 | 59 | 1015.0 |
| 20260506114715 | 47 | 188 | 0.0 | 0.0 | 0.00 | 0.00 | 0.00 | 57 | 1014.9 |
| 20260506114223 | 47 | 188 | 0.0 | 0.0 | 0.00 | 0.00 | 0.00 | 56 | 1014.8 |
| 20260506113714 | 48 | 188 | 0.0 | 0.0 | 0.00 | 0.00 | 0.00 | 56 | 1014.7 |
| 20260506113224 | 48 | 188 | 0.0 | 0.0 | 0.00 | 0.00 | 0.00 | 55 | 1014.8 |
| 20260506112714 | 48 | 188 | 0.0 | 0.0 | 0.00 | 0.00 | 0.00 | 56 | 1014.8 |
| 20260506112223 | 48 | 188 | 0.0 | 0.0 | 0.00 | 0.00 | 0.00 | 56 | 1014.8 |
| 20260506111730 | 49 | 188 | 0.0 | 0.0 | 0.00 | 0.00 | 0.00 | 57 | 1014.8 |
| 20260506111219 | 49 | 188 | 0.0 | 0.0 | 0.00 | 0.00 | 0.00 | 55 | 1014.7 |
| 20260506110747 | 49 | 188 | 0.0 | 0.0 | 0.00 | 0.00 | 0.00 | 55 | 1014.7 |
| 20260506110215 | 49 | 188 | 0.0 | 0.0 | 0.00 | 0.00 | 0.00 | 54 | 1014.6 |
| 20260506105725 | 49 | 188 | 0.0 | 0.0 | 0.00 | 0.00 | 0.00 | 54 | 1014.5 |
| 20260506105214 | 50 | 188 | 0.0 | 0.0 | 0.00 | 0.00 | 0.00 | 53 | 1014.6 |
| 20260506104743 | 50 | 188 | 0.0 | 0.0 | 0.00 | 0.00 | 0.00 | 52 | 1014.5 |
| 20260506104216 | 50 | 188 | 0.0 | 0.0 | 0.00 | 0.00 | 0.00 | 52 | 1014.4 |
| 20260506103743 | 50 | 188 | 0.0 | 0.0 | 0.00 | 0.00 | 0.00 | 51 | 1014.4 |
| 20260506102728 | 51 | 188 | 0.0 | 0.0 | 0.00 | 0.00 | 0.00 | 49 | 1014.3 |
| 20260506102217 | 51 | 188 | 0.0 | 0.0 | 0.00 | 0.00 | 0.00 | 49 | 1014.3 |
| 20260506101725 | 52 | 188 | 0.0 | 0.0 | 0.00 | 0.00 | 0.00 | 48 | 1014.2 |
| 20260506101215 | 52 | 188 | 0.0 | 0.0 | 0.00 | 0.00 | 0.00 | 48 | 1014.2 |
| 20260506100724 | 52 | 188 | 0.0 | 0.0 | 0.00 | 0.00 | 0.00 | 47 | 1014.1 |
| 20260506100213 | 53 | 188 | 0.0 | 0.0 | 0.00 | 0.00 | 0.00 | 47 | 1014.1 |
| 20260506095724 | 53 | 188 | 0.0 | 0.0 | 0.00 | 0.00 | 0.00 | 46 | 1014.0 |
| 20260506095232 | 54 | 188 | 0.0 | 0.0 | 0.00 | 0.00 | 0.00 | 44 | 1013.8 |
| 20260506094719 | 54 | 188 | 0.0 | 0.0 | 0.00 | 0.00 | 0.00 | 44 | 1013.7 |
| 20260506094213 | 55 | 188 | 0.0 | 0.0 | 0.00 | 0.00 | 0.00 | 43 | 1013.6 |
| 20260506093722 | 55 | 188 | 0.0 | 0.0 | 0.00 | 0.00 | 0.00 | 43 | 1013.7 |
| 20260506093229 | 56 | 188 | 0.0 | 0.0 | 0.00 | 0.00 | 0.00 | 42 | 1013.7 |
| 20260506092720 | 56 | 188 | 0.0 | 0.0 | 0.00 | 0.00 | 0.00 | 40 | 1013.6 |
| 20260506092248 | 57 | 188 | 0.0 | 0.0 | 0.00 | 0.00 | 0.00 | 41 | 1013.4 |
| 20260506091714 | 58 | 188 | 0.0 | 0.0 | 0.00 | 0.00 | 0.00 | 40 | 1013.3 |
| 20260506091225 | 59 | 188 | 0.0 | 0.0 | 0.00 | 0.00 | 0.00 | 39 | 1013.3 |
| 20260506090250 | 60 | 188 | 0.0 | 0.0 | 0.00 | 0.00 | 0.00 | 37 | 1013.2 |
| 20260506085720 | 61 | 188 | 0.0 | 0.0 | 0.00 | 0.00 | 0.00 | 36 | 1013.2 |
| 20260506085229 | 62 | 188 | 0.0 | 0.0 | 0.00 | 0.00 | 0.00 | 35 | 1013.1 |
| 20260506084718 | 62 | 188 | 0.0 | 0.0 | 0.00 | 0.00 | 0.00 | 35 | 1013.1 |
| 20260506084228 | 62 | 188 | 0.0 | 0.0 | 0.00 | 0.00 | 0.00 | 34 | 1013.1 |
| 20260506083717 | 63 | 182 | 0.0 | 0.0 | 0.00 | 0.00 | 0.00 | 34 | 1013.0 |
| 20260506083230 | 64 | 183 | 0.0 | 0.0 | 0.00 | 0.00 | 0.00 | 33 | 1013.1 |
| 20260506082720 | 64 | 103 | 0.0 | 0.0 | 0.00 | 0.00 | 0.00 | 32 | 1013.0 |
| 20260506082229 | 64 | 103 | 0.0 | 0.0 | 0.00 | 0.00 | 0.00 | 31 | 1013.0 |
| 20260506081717 | 65 | 105 | 0.0 | 3.0 | 0.00 | 0.00 | 0.00 | 31 | 1013.0 |
| 20260506081228 | 65 | 79 | 0.0 | 3.0 | 0.00 | 0.00 | 0.00 | 31 | 1013.0 |
| 20260506080716 | 65 | 78 | 0.0 | 5.0 | 0.00 | 0.00 | 0.00 | 30 | 1013.0 |
| 20260506080225 | 65 | 79 | 0.0 | 5.0 | 0.00 | 0.00 | 0.00 | 30 | 1012.9 |
| 20260506073219 | 66 | 101 | 0.0 | 0.0 | 0.00 | 0.00 | 0.00 | 29 | 1012.9 |
| 20260506072730 | 67 | 157 | 0.0 | 0.0 | 0.00 | 0.00 | 0.00 | 29 | 1012.9 |
| 20260506072239 | 67 | 157 | 0.0 | 0.0 | 0.00 | 0.00 | 0.00 | 29 | 1012.9 |
| 20260506071727 | 67 | 137 | 0.0 | 0.0 | 0.00 | 0.00 | 0.00 | 28 | 1012.9 |
| 20260506071216 | 67 | 188 | 0.0 | 0.0 | 0.00 | 0.00 | 0.00 | 28 | 1012.8 |
| 20260506070219 | 67 | 175 | 1.0 | 7.0 | 0.00 | 0.00 | 0.00 | 28 | 1012.7 |
| 20260506062231 | 68 | 184 | 0.0 | 8.0 | 0.00 | 0.00 | 0.00 | 26 | 1012.5 |
| 20260506061719 | 68 | 174 | 3.0 | 8.0 | 0.00 | 0.00 | 0.00 | 26 | 1012.5 |
| 20260506061229 | 69 | 159 | 0.0 | 10.0 | 0.00 | 0.00 | 0.00 | 26 | 1012.4 |
| 20260506060716 | 69 | 201 | 0.0 | 10.0 | 0.00 | 0.00 | 0.00 | 26 | 1012.4 |
| 20260506060225 | 69 | 199 | 1.0 | 13.0 | 0.00 | 0.00 | 0.00 | 26 | 1012.3 |
| 20260506051218 | 70 | 175 | 3.0 | 17.0 | 0.00 | 0.00 | 0.00 | 25 | 1012.1 |
| 20260506050727 | 70 | 183 | 7.0 | 17.0 | 0.00 | 0.00 | 0.00 | 25 | 1011.9 |
| 20260506050215 | 70 | 190 | 3.0 | 12.0 | 0.00 | 0.00 | 0.00 | 25 | 1011.8 |
| 20260506044727 | 70 | 172 | 1.0 | 12.0 | 0.00 | 0.00 | 0.00 | 25 | 1011.6 |
| 20260506044218 | 70 | 202 | 2.0 | 11.0 | 0.00 | 0.00 | 0.00 | 25 | 1011.4 |
| 20260506043725 | 70 | 190 | 3.0 | 12.0 | 0.00 | 0.00 | 0.00 | 25 | 1011.4 |
| 20260506043213 | 70 | 176 | 3.0 | 12.0 | 0.00 | 0.00 | 0.00 | 25 | 1011.3 |
| 20260506042721 | 70 | 173 | 2.0 | 8.0 | 0.00 | 0.00 | 0.00 | 25 | 1011.2 |
| 20260506042228 | 70 | 175 | 1.0 | 6.0 | 0.00 | 0.00 | 0.00 | 24 | 1011.2 |
| 20260506041716 | 70 | 144 | 1.0 | 5.0 | 0.00 | 0.00 | 0.00 | 24 | 1011.1 |
| 20260506041225 | 70 | 179 | 0.0 | 0.0 | 0.00 | 0.00 | 0.00 | 24 | 1011.1 |
| 20260506040717 | 70 | 155 | 0.0 | 0.0 | 0.00 | 0.00 | 0.00 | 24 | 1011.0 |
| 20260506040224 | 70 | 150 | 0.0 | 0.0 | 0.00 | 0.00 | 0.00 | 24 | 1010.9 |
| 20260506035753 | 70 | 174 | 0.0 | 0.0 | 0.00 | 0.00 | 0.00 | 24 | 1010.9 |
| 20260506035242 | 70 | 196 | 0.0 | 0.0 | 0.00 | 0.00 | 0.00 | 23 | 1010.8 |
| 20260506034749 | 71 | 169 | 0.0 | 0.0 | 0.00 | 0.00 | 0.00 | 23 | 1010.6 |
| 20260506034216 | 71 | 205 | 0.0 | 0.0 | 0.00 | 0.00 | 0.00 | 23 | 1010.6 |
| 20260506033722 | 71 | 150 | 0.0 | 2.0 | 0.00 | 0.00 | 0.00 | 23 | 1010.5 |
| 20260506033231 | 71 | 193 | 0.0 | 2.0 | 0.00 | 0.00 | 0.00 | 23 | 1010.5 |
| 20260506032741 | 71 | 173 | 0.0 | 1.0 | 0.00 | 0.00 | 0.00 | 23 | 1010.4 |
| 20260506032247 | 71 | 194 | 0.0 | 0.0 | 0.00 | 0.00 | 0.00 | 23 | 1010.3 |
| 20260506031736 | 71 | 164 | 0.0 | 2.0 | 0.00 | 0.00 | 0.00 | 23 | 1010.2 |
| 20260506031244 | 71 | 153 | 0.0 | 2.0 | 0.00 | 0.00 | 0.00 | 23 | 1010.1 |
| 20260506030732 | 71 | 171 | 0.0 | 5.0 | 0.00 | 0.00 | 0.00 | 24 | 1010.1 |
| 20260506030220 | 71 | 182 | 1.0 | 5.0 | 0.00 | 0.00 | 0.00 | 24 | 1010.0 |
| 20260506025714 | 71 | 167 | 0.0 | 0.0 | 0.00 | 0.00 | 0.00 | 25 | 1010.0 |
| 20260506025224 | 72 | 165 | 0.0 | 0.0 | 0.00 | 0.00 | 0.00 | 25 | 1009.9 |
| 20260506024731 | 72 | 173 | 0.0 | 0.0 | 0.00 | 0.00 | 0.00 | 24 | 1009.8 |
| 20260506024220 | 72 | 182 | 0.0 | 1.0 | 0.00 | 0.00 | 0.00 | 24 | 1009.8 |
| 20260506023728 | 72 | 184 | 0.0 | 1.0 | 0.00 | 0.00 | 0.00 | 24 | 1009.8 |
| 20260506023217 | 72 | 202 | 0.0 | 6.0 | 0.00 | 0.00 | 0.00 | 24 | 1009.7 |
| 20260506022727 | 73 | 177 | 0.0 | 6.0 | 0.00 | 0.00 | 0.00 | 24 | 1009.6 |
| 20260506022216 | 73 | 178 | 0.0 | 1.0 | 0.00 | 0.00 | 0.00 | 24 | 1009.6 |
| 20260506021725 | 73 | 179 | 0.0 | 1.0 | 0.00 | 0.00 | 0.00 | 24 | 1009.6 |
| 20260506021219 | 74 | 178 | 0.0 | 5.0 | 0.00 | 0.00 | 0.00 | 24 | 1009.5 |
| 20260506020728 | 74 | 221 | 0.0 | 5.0 | 0.00 | 0.00 | 0.00 | 23 | 1009.5 |
| 20260506020216 | 74 | 151 | 0.0 | 0.0 | 0.00 | 0.00 | 0.00 | 24 | 1009.4 |
| 20260506015725 | 74 | 184 | 0.0 | 4.0 | 0.00 | 0.00 | 0.00 | 24 | 1009.3 |
| 20260506015213 | 75 | 194 | 0.0 | 4.0 | 0.00 | 0.00 | 0.00 | 24 | 1009.3 |
| 20260506014721 | 75 | 174 | 0.0 | 2.0 | 0.00 | 0.00 | 0.00 | 24 | 1009.2 |
| 20260506014230 | 75 | 168 | 0.0 | 2.0 | 0.00 | 0.00 | 0.00 | 23 | 1009.2 |
| 20260506013717 | 75 | 139 | 0.0 | 0.0 | 0.00 | 0.00 | 0.00 | 25 | 1009.2 |
| 20260506013222 | 75 | 163 | 0.0 | 1.0 | 0.00 | 0.00 | 0.00 | 24 | 1009.2 |
| 20260506012733 | 76 | 125 | 0.0 | 1.0 | 0.00 | 0.00 | 0.00 | 24 | 1009.2 |
| 20260506012225 | 76 | 163 | 0.0 | 0.0 | 0.00 | 0.00 | 0.00 | 23 | 1009.1 |
| 20260506011712 | 76 | 167 | 0.0 | 0.0 | 0.00 | 0.00 | 0.00 | 23 | 1009.2 |
| 20260506011222 | 76 | 171 | 0.0 | 1.0 | 0.00 | 0.00 | 0.00 | 23 | 1009.2 |
| 20260506010731 | 76 | 184 | 0.0 | 4.0 | 0.00 | 0.00 | 0.00 | 23 | 1009.2 |
| 20260506010218 | 77 | 169 | 0.0 | 7.0 | 0.00 | 0.00 | 0.00 | 22 | 1009.2 |
| 20260506005730 | 77 | 171 | 0.0 | 0.0 | 0.00 | 0.00 | 0.00 | 22 | 1009.1 |
| 20260506005217 | 77 | 162 | 0.0 | 1.0 | 0.00 | 0.00 | 0.00 | 23 | 1009.1 |
| 20260506004745 | 77 | 169 | 0.0 | 1.0 | 0.00 | 0.00 | 0.00 | 22 | 1009.1 |
| 20260506004234 | 77 | 134 | 0.0 | 0.0 | 0.00 | 0.00 | 0.00 | 23 | 1009.0 |
| 20260506003720 | 77 | 171 | 0.0 | 0.0 | 0.00 | 0.00 | 0.00 | 22 | 1009.0 |
| 20260506003227 | 78 | 164 | 0.0 | 0.0 | 0.00 | 0.00 | 0.00 | 23 | 1009.0 |
| 20260506002719 | 78 | 117 | 0.0 | 0.0 | 0.00 | 0.00 | 0.00 | 21 | 1009.0 |
| 20260506002226 | 78 | 213 | 0.0 | 0.0 | 0.00 | 0.00 | 0.00 | 22 | 1009.1 |
| 20260506001714 | 78 | 199 | 0.0 | 0.0 | 0.00 | 0.00 | 0.00 | 21 | 1009.2 |
| 20260506001243 | 78 | 119 | 0.0 | 0.0 | 0.00 | 0.00 | 0.00 | 22 | 1009.1 |
| 20260506000730 | 78 | 208 | 0.0 | 0.0 | 0.00 | 0.00 | 0.00 | 22 | 1009.0 |
| 20260506000219 | 77 | 84 | 0.0 | 0.0 | 0.00 | 0.00 | 0.00 | 21 | 1009.1 |
| 20260505235728 | 78 | 24 | 0.0 | 0.0 | 0.00 | 0.00 | 0.00 | 20 | 1009.1 |
| 20260505235215 | 77 | 86 | 0.0 | 0.0 | 0.00 | 0.00 | 0.00 | 20 | 1009.1 |
| 20260505234744 | 77 | 57 | 0.0 | 0.0 | 0.00 | 0.00 | 0.00 | 21 | 1009.1 |
| 20260505234231 | 78 | 57 | 0.0 | 2.0 | 0.00 | 0.00 | 0.00 | 20 | 1009.2 |
| 20260505233718 | 78 | 111 | 0.0 | 2.0 | 0.00 | 0.00 | 0.00 | 22 | 1009.2 |
| 20260505233230 | 78 | 317 | 0.0 | 4.0 | 0.00 | 0.00 | 0.00 | 21 | 1009.2 |
| 20260505232719 | 78 | 86 | 0.0 | 4.0 | 0.00 | 0.00 | 0.00 | 20 | 1009.3 |
| 20260505232228 | 79 | 58 | 0.0 | 4.0 | 0.00 | 0.00 | 0.00 | 20 | 1009.3 |
| 20260505231715 | 79 | 77 | 0.0 | 4.0 | 0.00 | 0.00 | 0.00 | 20 | 1009.3 |
| 20260505231225 | 79 | 173 | 0.0 | 0.0 | 0.00 | 0.00 | 0.00 | 20 | 1009.4 |
| 20260505230732 | 79 | 118 | 0.0 | 0.0 | 0.00 | 0.00 | 0.00 | 21 | 1009.4 |
| 20260505230220 | 79 | 120 | 0.0 | 7.0 | 0.00 | 0.00 | 0.00 | 21 | 1009.5 |
| 20260505225731 | 79 | 157 | 0.0 | 7.0 | 0.00 | 0.00 | 0.00 | 21 | 1009.5 |
| 20260505225240 | 79 | 178 | 0.0 | 0.0 | 0.00 | 0.00 | 0.00 | 21 | 1009.6 |
| 20260505224727 | 78 | 157 | 0.0 | 1.0 | 0.00 | 0.00 | 0.00 | 22 | 1009.7 |
| 20260505224221 | 78 | 325 | 0.0 | 0.0 | 0.00 | 0.00 | 0.00 | 21 | 1009.6 |
| 20260505223729 | 79 | 202 | 0.0 | 0.0 | 0.00 | 0.00 | 0.00 | 19 | 1009.6 |
| 20260505223216 | 79 | 167 | 0.0 | 5.0 | 0.00 | 0.00 | 0.00 | 20 | 1009.7 |
| 20260505222725 | 79 | 205 | 1.0 | 5.0 | 0.00 | 0.00 | 0.00 | 22 | 1009.8 |
| 20260505222213 | 79 | 136 | 0.0 | 4.0 | 0.00 | 0.00 | 0.00 | 22 | 1009.9 |
| 20260505221720 | 78 | 132 | 0.0 | 1.0 | 0.00 | 0.00 | 0.00 | 22 | 1010.0 |
| 20260505221251 | 78 | 101 | 0.0 | 2.0 | 0.00 | 0.00 | 0.00 | 20 | 1010.1 |
| 20260505220718 | 77 | 217 | 0.0 | 6.0 | 0.00 | 0.00 | 0.00 | 21 | 1010.2 |
| 20260505220228 | 77 | 41 | 0.0 | 5.0 | 0.00 | 0.00 | 0.00 | 20 | 1010.2 |
| 20260505215722 | 77 | 38 | 1.0 | 5.0 | 0.00 | 0.00 | 0.00 | 21 | 1010.2 |
| 20260505215252 | 78 | 69 | 0.0 | 9.0 | 0.00 | 0.00 | 0.00 | 21 | 1010.4 |
| 20260505214718 | 79 | 70 | 1.0 | 9.0 | 0.00 | 0.00 | 0.00 | 20 | 1010.4 |
| 20260505214227 | 79 | 112 | 0.0 | 1.0 | 0.00 | 0.00 | 0.00 | 22 | 1010.4 |
| 20260505213716 | 78 | 194 | 0.0 | 4.0 | 0.00 | 0.00 | 0.00 | 21 | 1010.5 |
| 20260505213226 | 79 | 119 | 0.0 | 4.0 | 0.00 | 0.00 | 0.00 | 22 | 1010.5 |
| 20260505212737 | 79 | 101 | 0.0 | 6.0 | 0.00 | 0.00 | 0.00 | 22 | 1010.6 |
| 20260505212223 | 78 | 202 | 1.0 | 10.0 | 0.00 | 0.00 | 0.00 | 22 | 1010.6 |
| 20260505211712 | 78 | 102 | 2.0 | 9.0 | 0.00 | 0.00 | 0.00 | 22 | 1010.6 |
| 20260505211221 | 78 | 114 | 0.0 | 0.0 | 0.00 | 0.00 | 0.00 | 23 | 1010.8 |
| 20260505210748 | 77 | 87 | 0.0 | 0.0 | 0.00 | 0.00 | 0.00 | 23 | 1010.9 |
| 20260505210215 | 77 | 134 | 0.0 | 0.0 | 0.00 | 0.00 | 0.00 | 22 | 1011.0 |
| 20260505205729 | 77 | 236 | 0.0 | 0.0 | 0.00 | 0.00 | 0.00 | 24 | 1010.9 |
| 20260505205238 | 75 | 185 | 0.0 | 2.0 | 0.00 | 0.00 | 0.00 | 26 | 1011.1 |
| 20260505204725 | 75 | 5 | 0.0 | 4.0 | 0.00 | 0.00 | 0.00 | 25 | 1011.1 |
| 20260505204215 | 76 | 59 | 0.0 | 2.0 | 0.00 | 0.00 | 0.00 | 24 | 1011.2 |
| 20260505203724 | 75 | 112 | 0.0 | 1.0 | 0.00 | 0.00 | 0.00 | 24 | 1011.2 |
| 20260505203213 | 75 | 49 | 0.0 | 2.0 | 0.00 | 0.00 | 0.00 | 26 | 1011.2 |
| 20260505202723 | 75 | 350 | 0.0 | 2.0 | 0.00 | 0.00 | 0.00 | 24 | 1011.2 |
| 20260505201725 | 75 | 299 | 0.0 | 3.0 | 0.00 | 0.00 | 0.00 | 23 | 1011.4 |
| 20260505201215 | 75 | 17 | 0.0 | 10.0 | 0.00 | 0.00 | 0.00 | 25 | 1011.5 |
| 20260505200724 | 75 | 90 | 0.0 | 10.0 | 0.00 | 0.00 | 0.00 | 25 | 1011.5 |
| 20260505200217 | 75 | 18 | 1.0 | 10.0 | 0.00 | 0.00 | 0.00 | 25 | 1011.6 |
| 20260505195726 | 75 | 350 | 0.0 | 2.0 | 0.00 | 0.00 | 0.00 | 24 | 1011.7 |
| 20260505195234 | 76 | 73 | 0.0 | 2.0 | 0.00 | 0.00 | 0.00 | 27 | 1011.6 |
| 20260505194722 | 76 | 123 | 0.0 | 1.0 | 0.00 | 0.00 | 0.00 | 23 | 1011.7 |
| 20260505194213 | 76 | 173 | 0.0 | 2.0 | 0.00 | 0.00 | 0.00 | 25 | 1011.8 |
| 20260505193722 | 75 | 186 | 0.0 | 2.0 | 0.00 | 0.00 | 0.00 | 27 | 1011.8 |
| 20260505193230 | 75 | 78 | 0.0 | 0.0 | 0.00 | 0.00 | 0.00 | 25 | 1011.8 |
| 20260505192741 | 75 | 105 | 0.0 | 8.0 | 0.00 | 0.00 | 0.00 | 26 | 1011.8 |
| 20260505192230 | 75 | 105 | 1.0 | 8.0 | 0.00 | 0.00 | 0.00 | 25 | 1011.8 |
| 20260505191739 | 74 | 106 | 0.0 | 3.0 | 0.00 | 0.00 | 0.00 | 27 | 1011.8 |
| 20260505191229 | 74 | 113 | 0.0 | 0.0 | 0.00 | 0.00 | 0.00 | 27 | 1011.8 |
| 20260505190738 | 75 | 23 | 0.0 | 0.0 | 0.00 | 0.00 | 0.00 | 27 | 1011.8 |
| 20260505190225 | 75 | 129 | 0.0 | 1.0 | 0.00 | 0.00 | 0.00 | 27 | 1011.8 |
| 20260505185213 | 76 | 126 | 0.0 | 18.0 | 0.00 | 0.00 | 0.00 | 26 | 1012.1 |
| 20260505184742 | 76 | 147 | 1.0 | 18.0 | 0.00 | 0.00 | 0.00 | 27 | 1012.0 |
| 20260505184251 | 76 | 94 | 0.0 | 0.0 | 0.00 | 0.00 | 0.00 | 26 | 1011.9 |
| 20260505183719 | 76 | 143 | 0.0 | 0.0 | 0.00 | 0.00 | 0.00 | 30 | 1012.0 |
| 20260505183228 | 75 | 348 | 0.0 | 0.0 | 0.00 | 0.00 | 0.00 | 29 | 1012.0 |
| 20260505182718 | 75 | 249 | 0.0 | 1.0 | 0.00 | 0.00 | 0.00 | 28 | 1012.1 |
| 20260505182226 | 75 | 176 | 0.0 | 1.0 | 0.00 | 0.00 | 0.00 | 28 | 1012.1 |
| 20260505181714 | 74 | 178 | 0.0 | 1.0 | 0.00 | 0.00 | 0.00 | 27 | 1012.2 |
| 20260505181225 | 74 | 183 | 0.0 | 1.0 | 0.00 | 0.00 | 0.00 | 26 | 1012.1 |
| 20260505180713 | 74 | 124 | 0.0 | 1.0 | 0.00 | 0.00 | 0.00 | 28 | 1012.2 |
| 20260505180222 | 74 | 138 | 0.0 | 1.0 | 0.00 | 0.00 | 0.00 | 29 | 1012.2 |
| 20260505175715 | 73 | 158 | 0.0 | 1.0 | 0.00 | 0.00 | 0.00 | 30 | 1012.3 |
| 20260505175244 | 73 | 140 | 0.0 | 4.0 | 0.00 | 0.00 | 0.00 | 31 | 1012.2 |
| 20260505174732 | 73 | 130 | 1.0 | 4.0 | 0.00 | 0.00 | 0.00 | 30 | 1012.2 |
| 20260505174221 | 73 | 309 | 0.0 | 1.0 | 0.00 | 0.00 | 0.00 | 30 | 1012.2 |
| 20260505173730 | 73 | 45 | 0.0 | 8.0 | 0.00 | 0.00 | 0.00 | 29 | 1012.2 |
| 20260505173219 | 73 | 112 | 2.0 | 8.0 | 0.00 | 0.00 | 0.00 | 30 | 1012.2 |
| 20260505172728 | 73 | 146 | 1.0 | 5.0 | 0.00 | 0.00 | 0.00 | 31 | 1012.4 |
| 20260505172216 | 72 | 138 | 0.0 | 4.0 | 0.00 | 0.00 | 0.00 | 31 | 1012.3 |
| 20260505171745 | 72 | 121 | 0.0 | 4.0 | 0.00 | 0.00 | 0.00 | 30 | 1012.3 |
| 20260505171233 | 72 | 76 | 0.0 | 4.0 | 0.00 | 0.00 | 0.00 | 31 | 1012.3 |
| 20260505170725 | 72 | 165 | 0.0 | 9.0 | 0.00 | 0.00 | 0.00 | 31 | 1012.4 |
| 20260505170232 | 71 | 144 | 0.0 | 11.0 | 0.00 | 0.00 | 0.00 | 31 | 1012.3 |
| 20260505165722 | 71 | 116 | 1.0 | 11.0 | 0.00 | 0.00 | 0.00 | 31 | 1012.4 |
| 20260505165230 | 71 | 149 | 0.0 | 10.0 | 0.00 | 0.00 | 0.00 | 32 | 1012.4 |